KUIPER-00009

导读 | 星芒AI

KUIPER-00009 是一颗小型地球轨道卫星,属于亚马逊公司计划中的 Kuiper 互联网星座项目。该卫星旨在为全球提供高速宽带互联网服务,特别是在网络基础设施薄弱的地区。它采用先进的通信技术,支持低延迟和高带宽传输。KUIPER-00009 于近期成功发射,运行在近地轨道,与其他星座卫星协同工作,以增强覆盖范围和系统稳定性。该项目致力于推动全球数字包容性,提升远程教育、医疗和商业应用的可及性。

基本信息
目录编号:
63725
目录名称:
KUIPER-00009
国际标识:
2025-088B
轨道中心:
EARTH
卫星名称:
KUIPER-00009
卫星全名:
KUIPER-00009
卫星状态:
在轨 (已飞行309 天)
发射日期:
2025-04-28 UTC
国别 :
美国 (US)
星等 :
--
轨道信息
数据来源 国际轨道数据 AOE轨道数据
星历时间 2026-03-02T22:59:37+0800
9小时前
查看轨道信息
2026-02-26T06:00:00+0800
5天前
查看轨道信息
半长轴 7007.554km 7007.572km
偏心率 0.0008756 0.0008982
轨道倾角 51.903° 51.902°
近地点辐角 75.664° 61.665°
升交点赤经 137.878° 158.699°
平近点角 284.529° 38.914°
近地点 623.281km 623.14km
远地点 635.553km 635.73km
周期 97.299分钟 97.300分钟
每日圈数 14.799708 14.799649
详细信息
使用方式:
暂无
2D轨道图
3D轨道图
轨道高度分析图
轨道倾角分析图
轨道综合分析图
查看轨道综合分析图